Location: Malvern Link
(52.1333°N, 2.3000°W)
Time: 03:19:46
(UTC+00:00)

CZ-4 R/B - Pass Details

Date: 18 September 2020
Orbit: 530 x 600 km, 97.7° (Epoch: 22 October)

Event Time Altitude Azimuth Distance (km) Brightness Sun altitude
Rises 18:45:21 0° 173° (S) 2,838 4.8 -5.3°
Reaches altitude 10° 18:47:32 10° 177° (S) 1,940 4.0 -5.6°
Maximum altitude 18:51:43 62° 259° (WSW) 679 2.1 -6.3°
Drops below altitude 10° 18:55:55 10° 340° (NNW) 1,941 4.6 -6.9°
Sets 18:58:06 0° 344° (NNW) 2,839 5.4 -7.2°
